www.pogodaiklimat.ru

ПОГОДА в Розберге, OR

  • Прогноз погоды в Розберге
  • Монитор погоды в Розберге
  • Климат в Розберге

АРХИВ ПОГОДЫ в Розберге

Время (UTC), дата Ветер
(напр.,м/с)
 
Видим.   Явления Облачность Т
(С)
Тd
(С)
f
(%)
Тe
(С)
Тes
(С)
Комфортность

P
(гПа)

Po
(гПа)
Тmin
(С)
Tmax
(С)
R
(мм)
SD
(см)
16:53 14.06 нст  16 км    ясно  +20.6  +9.4  49  +22  +32  комфорт  1017.4  998.3  +13.9  +20.6     
17:53 14.06 нст  16 км    ясно  +22.8  +10.0  44  +25  +37  комфорт  1016.9  998.0         
18:53 14.06 СЗ  16 км    ясно  +24.4  +7.8  35  +25  +41  комфорт  1016.3  997.3         
19:53 14.06 С  16 км    ясно  +26.7  +3.9  23  +25  +35  комфорт  1015.7  996.7         
20:53 14.06 С  16 км    ясно  +27.8  +5.0  23  +27  +38  жарко  1015.1  996.0         
21:53 14.06     16 км    ясно  +28.9  +6.1  24  +28  +50  жарко  1014.5  995.7         
22:53 14.06 С  16 км    ясно  +29.4  +6.1  23  +28  +35  жарко  1014.1  995.3  +20.0  +29.4     
23:53 14.06 С  16 км    ясно  +28.9  +5.0  22  +27  +30  жарко  1013.8  995.0         
00:53 15.06 С  16 км    ясно  +28.3  +3.3  20  +27  +28  жарко  1013.8  995.0         
01:53 15.06 С  16 км    ясно  +26.7  +5.6  26  +26  +27  жарко  1014.0  995.0         
02:53 15.06 С  16 км    ясно  +25.0  +4.4  26  +24  +25  комфорт  1014.4  995.7         
03:53 15.06 С  16 км    ясно  +23.3  +6.1  33  +24  +24  комфорт  1015.0  996.0         
04:53 15.06 СЗ  16 км    ясно  +21.7  +8.3  42  +23  +23  комфорт  1015.4  996.3  +21.7  +29.4     
05:53 15.06 С  16 км    ясно  +21.1  +8.9  46  +22  +22  комфорт  1015.7  996.7         
06:53 15.06   16 км    ясно  +18.3  +9.4  56  +19  +19    1015.8  996.7         
07:53 15.06   16 км    ясно  +16.7  +9.4  62  +17  +17    1015.9  997.0         
08:53 15.06   16 км    ясно  +15.6  +9.4  67  +15  +15    1016.0  997.0         
09:53 15.06   16 км    ясно  +14.4  +9.4  72  +14  +14    1016.1  997.0         
10:53 15.06 СВ  16 км    ясно  +15.0  +10.6  75  +15  +15    1016.2  997.3  +14.4  +21.7     
11:53 15.06 С  16 км    ясно  +13.9  +10.0  77  +14  +14    1016.5  997.7         
12:53 15.06 С  16 км    ясно  +15.0  +10.6  75  +15  +15    1016.7  997.7         
13:53 15.06 С  16 км    ясно  +16.1  +10.6  70  +16  +17    1016.9  998.0         
14:53 15.06 С  16 км    ясно  +17.8  +10.6  63  +18  +20    1016.8  998.0         
15:53 15.06 С  16 км    ясно  +19.4  +10.6  57  +21  +27  комфорт  1016.4  997.3         
16:53 15.06 С  16 км    ясно  +21.7  +11.1  51  +24  +31  комфорт  1016.1  997.0  +13.3  +21.7     
17:53 15.06 С  16 км    ясно  +23.9  +10.6  43  +25  +34  комфорт  1015.7  997.0         
18:53 15.06 СВ  16 км    ясно  +25.6  +10.6  39  +27  +39  жарко  1015.2  996.3         
19:53 15.06 нст  16 км    ясно  +27.8  +7.2  27  +27  +42  жарко  1014.5  995.7         
20:53 15.06 нст  16 км    ясно  +29.4  +5.6  22  +28  +42  жарко  1013.9  995.0         
21:53 15.06 С  16 км    ясно  +30.6  +4.4  19  +29  +38  жарко  1013.4  994.7         
22:53 15.06 С  16 км    ясно  +30.6  +5.6  21  +29  +31  жарко  1013.0  994.3  +21.7  +31.1     
23:53 15.06 С  16 км    ясно  +29.4  +2.2  17  +27  +29  жарко  1013.0  994.0         
00:53 16.06 СВ  16 км    ясно  +28.9  +6.7  25  +28  +31  жарко  1013.2  994.3         
01:53 16.06 С  16 км    ясно  +27.8  +6.7  26  +27  +28  жарко  1013.9  995.0         
02:53 16.06 С  16 км    ясно  +25.6  +6.7  30  +25  +26  комфорт  1014.3  995.3         
03:53 16.06 С  16 км    ясно  +23.9  +6.7  33  +24  +24  комфорт  1014.5  995.7         
04:53 16.06 С  16 км    ясно  +22.8  +7.2  37  +24  +24  комфорт  1014.6  995.7  +22.8  +31.1     
05:53 16.06   16 км    ясно  +20.6  +8.9  47  +22  +22  комфорт  1014.6  995.7         
06:53 16.06   16 км    ясно  +20.0  +10.0  53  +21  +21  комфорт  1014.5  995.7         
07:53 16.06 СЗ  16 км    ясно  +18.9  +10.6  59  +20  +20    1014.8  996.0         
08:53 16.06   16 км    ясно  +17.2  +10.6  65  +17  +17    1015.0  996.0         
09:53 16.06   16 км    ясно  +15.0  +10.0  72  +15  +15    1015.1  996.3         
10:53 16.06   16 км    ясно  +15.0  +10.0  72  +15  +15    1015.4  996.7  +15.0  +22.8     
11:53 16.06   16 км    ясно  +13.9  +10.0  77  +14  +14    1016.2  997.3         
12:53 16.06   16 км    ясно  +15.0  +10.6  75  +15  +15    1016.5  997.3         
13:53 16.06 С  16 км    ясно  +18.9  +11.7  63  +20  +20    1016.9  998.0         
14:53 16.06 С  16 км    ясно  +20.0  +11.7  59  +22  +24  комфорт  1016.9  998.0         
15:53 16.06 С  16 км    ясно  +22.2  +12.2  53  +25  +29  комфорт  1016.3  997.3         

 

Местоположение метеостанции Roseburg Regional Airport: широта 43.2339 долгота -123.3561 высота над уровнем моря 160 м.

В архиве по умолчанию представлена погода в Розберге за последние 1-2 суток. Обновление информации о фактической погоде в базе происходит ежечасно! Архивные данные за месяц целиком и за предыдущие месяцы Вы можете получить, выбрав интересующий диапазон дат из раскрывающегося списка и нажав кнопку "Ввод!".

Внимание! Архив погоды МЕТАР в базе сайта хранится не более 60 дней. Нет смысла пытаться выбрать более раннюю дату.

Внимание! Время в таблицах - всемирное. Для получения местного времени необходимо прибавить поправку, которая в Розберге равна -8 ч.

Ветер - указаны скорость ветра в м/с и направление, откуда дует ветер: С - северный, СВ - северо-восточный, В - восточный, ЮВ - юго-восточный, Ю - южный, ЮЗ - юго-западный, З - западный, СЗ - северо-западный.
Видимость - горизонтальная дальность видимости в метрах или километрах. При видимости от 1 до 10 км при отсутствии осадков обычно наблюдается дымка, при ухудшении видимости до 1 км и менее - туман. В сухую погоду видимость может ухудшаться дымом, пылью или мглою.
Атмосферные явления - указаны явления, наблюдавшиеся в указанный момент времени.
Облачность - указаны через наклонную черту верхняя и нижняя облачность в баллах и высота нижней границы облаков в метрах. Внимание: облачность, как и прочие метеорологические величины в США измеряются автоматическими метеостанциями. Указанные значения в баллах носят условный характер и показывают процент времени, в течение которого, в среднем, лазерный луч высотомера отражался от облаков обратно.
T - Температура воздуха - температура, измеренная на высоте 2 м над землей.
Td - Температура точки росы - температура, при понижении до которой содержащийся в воздухе водяной пар достигнет насыщения.
f - Относительная влажность воздуха - влажноcть воздуха, измеренная на высоте 2 м над землей.
Te - Эффективная температура - температура, которую ощущает одетый по сезону человек в тени. Характеристика душности погоды. При расчете учитывается влияние влажности воздуха и скорости ветра на теплоощущения человека.
Tes - Эффективная температура на солнце - температура, которую ощущает человек, с поправкой на солнечный нагрев. Характеристика знойности погоды. Зависит от высоты солнца над горизонтом, облачности и скорости ветра. Ночью, в пасмурную погоду, а также при ветре 12 м/с и более поправка равна нулю.
P - Атмосферное давление - приведенное к уровню моря атмосферное давление.
Po - Атмосферное давление - измеренное на уровне метеостанции атмосферное давление.
Tmin - Минимальная температура - минимум температуры воздуха на высоте 2 м над землей.
Tmax - Максимальная температура - максимум температуры воздуха на высоте 2 м над землей.
R - Количество осадков - Количество выпавших осадков за 3 или 6 часов, мм.
SD - Снежный покров - Высота снежного покрова, см.